Monroe, MI

7:51 PM EDT on August 25, 2016 (GMT -0400)
Custer

Weather History for KTTF - December, 2013

Change the Weather History Date:

Monday, December 9, 2013

  Actual Average Record
Temperature  
Mean Temperature 24 °F -  
Max Temperature 30 °F 39 °F 62 °F (1946)
Min Temperature 19 °F 25 °F 1 °F (2000)
Degree Days  
Heating Degree Days 40    
Moisture  
Dew Point 22 °F    
Average Humidity 82    
Maximum Humidity 100    
Minimum Humidity 68    
Precipitation  
Precipitation 0.00 in - - ()
Sea Level Pressure  
Sea Level Pressure 29.99 in    
Wind  
Wind Speed 12 mph (WSW)    
Max Wind Speed 24 mph    
Max Gust Speed 33 mph    
Visibility 9 miles    
Events Snow    
Averages and records for this station are not official NWS values.
T = Trace of Precipitation, MM = Missing Value Source: NWS Daily Summary

Daily Weather History Graph

Daily Weather History Graph

Search for Another Location

Airport or City:

Trip Planner

Search our weather history database for the weather conditions in past years. The results will help you decide how hot, cold, wet, or windy it might be!

Date:

Astronomy

Dec. 09, 2013 Rise Set
Actual Time 7:49 AM EST 5:02 PM EST
Civil Twilight 7:18 AM EST 5:33 PM EST
Nautical Twilight 6:43 AM EST 6:08 PM EST
Astronomical Twilight 6:09 AM EST 6:42 PM EST
Moon 12:37 PM EST (12/9) No Moon Set
Length of Visible Light 10h 15m
Length of Day
9h 12m
Waxing Crescent, 51% of the Moon is Illuminated
Dec 9
Waxing Crescent
Dec 17
Full
Dec 25
Last Quarter
Jan 1
New
Jan 7
First Quarter

Hourly Weather History & Observations

Time (EST) Temp. Windchill Dew Point Humidity Pressure Visibility Wind Dir Wind Speed Gust Speed Precip Events Conditions
12:12 AM 30.2 °F 24.3 °F 28.4 °F 93% 29.96 in 2.5 mi SE 5.8 mph - N/A   Overcast
12:33 AM 28.4 °F 22.2 °F 28.4 °F 100% 29.94 in 5.0 mi SE 5.8 mph - N/A   Overcast
12:53 AM 28.4 °F 22.2 °F 28.4 °F 100% 29.93 in 7.0 mi SSE 5.8 mph - N/A   Overcast
1:13 AM 28.4 °F 19.7 °F 28.4 °F 100% 29.92 in 5.0 mi SSE 9.2 mph - N/A   Overcast
1:35 AM 28.4 °F 20.4 °F 28.4 °F 100% 29.91 in 3.0 mi South 8.1 mph - N/A Snow Light Snow
1:55 AM 28.4 °F 22.2 °F 28.4 °F 100% 29.90 in 3.0 mi South 5.8 mph - N/A Snow Light Snow
2:10 AM 28.4 °F 22.2 °F 28.4 °F 100% 29.90 in 2.0 mi South 5.8 mph - N/A Snow Light Snow
2:33 AM 28.4 °F 20.4 °F 28.4 °F 100% 29.89 in 2.5 mi South 8.1 mph - N/A Snow Light Snow
2:53 AM 28.4 °F 22.2 °F 28.4 °F 100% 29.89 in 4.0 mi SSW 5.8 mph - N/A   Overcast
3:13 AM 28.4 °F 22.2 °F 28.4 °F 100% 29.89 in 3.0 mi SSW 5.8 mph - N/A Snow Light Snow
3:33 AM 30.2 °F 23.4 °F 28.4 °F 93% 29.88 in 5.0 mi SSW 6.9 mph - N/A   Overcast
3:53 AM 30.2 °F 23.4 °F 28.4 °F 93% 29.88 in 7.0 mi SW 6.9 mph - N/A   Overcast
4:13 AM 30.2 °F 21.9 °F 28.4 °F 93% 29.88 in 7.0 mi SW 9.2 mph - N/A   Overcast
4:33 AM 30.2 °F 21.3 °F 28.4 °F 93% 29.88 in 10.0 mi SW 10.4 mph - N/A   Overcast
4:54 AM 30.2 °F 19.8 °F 28.4 °F 93% 29.88 in 10.0 mi WSW 13.8 mph 18.4 mph N/A   Overcast
5:14 AM 30.2 °F 19.8 °F 26.6 °F 86% 29.88 in 10.0 mi WSW 13.8 mph 20.7 mph N/A   Overcast
5:34 AM 30.2 °F 19.8 °F 26.6 °F 86% 29.88 in 7.0 mi WSW 13.8 mph 18.4 mph N/A   Overcast
5:54 AM 30.2 °F 19.8 °F 26.6 °F 86% 29.88 in 7.0 mi WSW 13.8 mph 21.9 mph N/A   Overcast
6:14 AM 30.2 °F 18.5 °F 26.6 °F 86% 29.89 in 10.0 mi WSW 17.3 mph 21.9 mph N/A   Overcast
6:34 AM 30.2 °F 18.9 °F 26.6 °F 86% 29.90 in 10.0 mi WSW 16.1 mph 21.9 mph N/A   Overcast
6:54 AM 30.2 °F 19.8 °F 26.6 °F 86% 29.91 in 10.0 mi WSW 13.8 mph 20.7 mph N/A   Overcast
7:14 AM 30.2 °F 19.3 °F 26.6 °F 86% 29.91 in 7.0 mi WSW 15.0 mph 18.4 mph N/A   Overcast
7:34 AM 28.4 °F 16.6 °F 26.6 °F 93% 29.91 in 7.0 mi WSW 16.1 mph 21.9 mph N/A   Overcast
7:54 AM 28.4 °F 16.2 °F 26.6 °F 93% 29.92 in 10.0 mi WSW 17.3 mph 24.2 mph N/A   Overcast
8:14 AM 28.4 °F 17.5 °F 26.6 °F 93% 29.92 in 7.0 mi WSW 13.8 mph - N/A   Overcast
8:34 AM 28.4 °F 15.8 °F 26.6 °F 93% 29.93 in 7.0 mi WSW 18.4 mph 25.3 mph N/A   Overcast
8:54 AM 28.4 °F 16.6 °F 26.6 °F 93% 29.94 in 10.0 mi WSW 16.1 mph 24.2 mph N/A   Overcast
9:15 AM 28.4 °F 15.4 °F 24.8 °F 86% 29.95 in 10.0 mi WSW 19.6 mph 27.6 mph N/A   Overcast
9:35 AM 28.4 °F 16.2 °F 24.8 °F 86% 29.96 in 10.0 mi WSW 17.3 mph - N/A   Overcast
9:55 AM 28.4 °F 15.1 °F 23.0 °F 80% 29.98 in 10.0 mi WSW 20.7 mph 28.8 mph N/A   Overcast
10:15 AM 28.4 °F 15.8 °F 23.0 °F 80% 29.99 in 10.0 mi WSW 18.4 mph 28.8 mph N/A   Overcast
10:35 AM 28.4 °F 16.6 °F 24.8 °F 86% 30.00 in 10.0 mi WSW 16.1 mph 24.2 mph N/A   Overcast
10:55 AM 28.4 °F 15.8 °F 23.0 °F 80% 30.01 in 10.0 mi WSW 18.4 mph 27.6 mph N/A   Overcast
11:15 AM 28.4 °F 15.1 °F 23.0 °F 80% 30.01 in 10.0 mi WSW 20.7 mph 25.3 mph N/A   Overcast
11:36 AM 28.4 °F 15.4 °F 23.0 °F 80% 30.01 in 10.0 mi WSW 19.6 mph 25.3 mph N/A   Overcast
11:56 AM 28.4 °F 16.2 °F 21.2 °F 74% 30.00 in 10.0 mi WSW 17.3 mph 27.6 mph N/A   Overcast
12:16 PM 28.4 °F 15.8 °F 21.2 °F 74% 29.99 in 10.0 mi WSW 18.4 mph 21.9 mph N/A   Overcast
12:36 PM 30.2 °F 18.1 °F 21.2 °F 69% 29.98 in 10.0 mi WSW 18.4 mph 21.9 mph N/A   Scattered Clouds
12:56 PM 28.4 °F 17.0 °F 21.2 °F 74% 29.98 in 10.0 mi WSW 15.0 mph 20.7 mph N/A   Mostly Cloudy
1:16 PM 28.4 °F 17.0 °F 21.2 °F 74% 29.98 in 10.0 mi WSW 15.0 mph 23.0 mph N/A   Overcast
1:36 PM 28.4 °F 15.1 °F 21.2 °F 74% 29.98 in 10.0 mi WSW 20.7 mph 26.5 mph N/A   Overcast
1:56 PM 28.4 °F 14.7 °F 19.4 °F 69% 30.01 in 10.0 mi WSW 21.9 mph 28.8 mph N/A   Overcast
2:16 PM 28.4 °F 14.4 °F 19.4 °F 69% 30.01 in 10.0 mi WSW 23.0 mph 33.4 mph N/A   Overcast
2:36 PM 28.4 °F 15.8 °F 21.2 °F 74% 30.02 in 10.0 mi WSW 18.4 mph 26.5 mph N/A   Overcast
2:56 PM 26.6 °F 13.8 °F 21.2 °F 80% 30.02 in 10.0 mi WSW 17.3 mph 28.8 mph N/A   Overcast
3:16 PM 26.6 °F 12.0 °F 19.4 °F 74% 30.02 in 10.0 mi WSW 23.0 mph 26.5 mph N/A   Overcast
3:36 PM 26.6 °F 12.4 °F 19.4 °F 74% 30.03 in 10.0 mi West 21.9 mph 28.8 mph N/A   Overcast
3:57 PM 26.6 °F 11.7 °F 17.6 °F 69% 30.04 in 10.0 mi WSW 24.2 mph 33.4 mph N/A   Overcast
4:12 PM 26.6 °F 13.8 °F 19.4 °F 74% 30.05 in 10.0 mi WSW 17.3 mph 21.9 mph N/A   Overcast
4:32 PM 26.6 °F 12.4 °F 17.6 °F 69% 30.06 in 10.0 mi West 21.9 mph 31.1 mph N/A   Overcast
4:52 PM 26.6 °F 14.3 °F 17.6 °F 69% 30.06 in 10.0 mi WSW 16.1 mph 21.9 mph N/A   Overcast
5:12 PM 26.6 °F 13.4 °F 17.6 °F 69% 30.07 in 10.0 mi West 18.4 mph 27.6 mph N/A   Overcast
5:32 PM 24.8 °F 11.1 °F 15.8 °F 69% 30.08 in 10.0 mi WSW 18.4 mph 28.8 mph N/A   Overcast
5:52 PM 24.8 °F 10.7 °F 15.8 °F 69% 30.08 in 10.0 mi WSW 19.6 mph 23.0 mph N/A   Scattered Clouds
6:12 PM 24.8 °F 13.4 °F 15.8 °F 69% 30.08 in 10.0 mi West 12.7 mph 18.4 mph N/A   Scattered Clouds
6:33 PM 23.0 °F 11.7 °F 15.8 °F 74% 30.08 in 10.0 mi WSW 11.5 mph 19.6 mph N/A   Mostly Cloudy
6:53 PM 21.2 °F 8.3 °F 15.8 °F 80% 30.08 in 10.0 mi WSW 13.8 mph - N/A   Scattered Clouds
7:13 PM 21.2 °F 8.9 °F 15.8 °F 80% 30.09 in 10.0 mi WSW 12.7 mph - N/A   Clear
7:33 PM 21.2 °F 6.4 °F 15.8 °F 80% 30.10 in 10.0 mi WSW 18.4 mph - N/A   Clear
7:53 PM 21.2 °F 7.3 °F 15.8 °F 80% 30.11 in 10.0 mi WSW 16.1 mph 21.9 mph N/A   Clear
8:13 PM 21.2 °F 7.3 °F 15.8 °F 80% 30.10 in 10.0 mi WSW 16.1 mph 21.9 mph N/A   Clear
8:33 PM 21.2 °F 8.3 °F 15.8 °F 80% 30.11 in 10.0 mi WSW 13.8 mph - N/A   Clear
8:53 PM 21.2 °F 7.3 °F 14.0 °F 74% 30.11 in 10.0 mi WSW 16.1 mph 23.0 mph N/A   Clear
9:13 PM 21.2 °F 8.3 °F 14.0 °F 74% 30.11 in 10.0 mi WSW 13.8 mph 25.3 mph N/A   Scattered Clouds
9:34 PM 21.2 °F 8.3 °F 14.0 °F 74% 30.10 in 10.0 mi WSW 13.8 mph 24.2 mph N/A   Scattered Clouds
9:54 PM 21.2 °F 8.3 °F 14.0 °F 74% 30.10 in 10.0 mi WSW 13.8 mph - N/A   Clear
10:14 PM 21.2 °F 8.3 °F 14.0 °F 74% 30.09 in 10.0 mi WSW 13.8 mph 20.7 mph N/A   Scattered Clouds
10:34 PM 21.2 °F 7.3 °F 12.2 °F 68% 30.09 in 10.0 mi WSW 16.1 mph 21.9 mph N/A   Scattered Clouds
10:54 PM 19.4 °F 5.5 °F 12.2 °F 74% 30.10 in 10.0 mi WSW 15.0 mph 19.6 mph N/A   Mostly Cloudy
11:14 PM 19.4 °F 5.0 °F 12.2 °F 74% 30.09 in 10.0 mi WSW 16.1 mph 23.0 mph N/A   Scattered Clouds
11:34 PM 19.4 °F 6.6 °F 12.2 °F 74% 30.09 in 10.0 mi West 12.7 mph 19.6 mph N/A   Scattered Clouds
11:54 PM 19.4 °F 5.5 °F 12.2 °F 74% 30.09 in 10.0 mi West 15.0 mph 23.0 mph N/A   Clear